Zurück zum Katalog

FENGYUN 1C DEB

AktivPO
NORAD 31663·DEBRIS·🇨🇳 China

Gestartet May 10, 1999 von Taiyuan Satellite Launch Center

Loading…

Nächste Überflüge (nächste 24 Stunden)

TLE

AktuellSource: Space-Track

Epoche: Sep 12, 2026, 13:38 UTC

1 31663U 99025CBV 26255.56867211  .00001623  00000-0  17647-3 0  9990
2 31663  98.8422 194.6580 0188103  95.2943 266.9758 14.77693324 33162

Verfolge FENGYUN 1C DEB in Echtzeit mit AllMySat

Download on the App Store